STARLINK-1192

decayed
NORAD ID: 45180 Int'l Des: 2020-012 Owner: SPXS Country: US Constellation: starlink
LEOCIRCULAR
Gruppe

Über STARLINK-1192

Beschreibung wird geladen...

Höhenverlauf

Altitude vs Time

uPlot chart will show altitude changes over time

Zweizeiliger Elementsatz

1 45180U 20012C 23279.08557972 .22107216 12697-4 15470-2 0 9998
2 45180 52.9727 352.6586 0026615 31.2899 36.8838 16.38040394201680
Epoch: 6. Okt. 2023 • Age: 17073 hours

Aktueller Status

Position data unavailable
Startdatum 17. Feb. 2020
Alter 5.5 years
Verglühungsdatum 6. Okt. 2023
Typ internet

Technische Details

Klassifizierung Payload
Masse 260.00 kg
Trockenmasse 248.00 kg
Gesamtmasse 260.00 kg
Länge 0.20 m
Durchmesser 2.80 m
Spannweite 9.00 m
Form Box + pan
Hersteller SPXS
Bus-Typ Starlink
Phasenstatus Reentered
Besitzer/Staat SPXS/US

Große Konstellationen

Loading constellations...